Vertical_Velocity
8 7 2 -0 2 6 3 4 5 4 6 7 7 8 6 4 1 4 1 -2 0 0
-3 -1 1 -0 -4 1 2 0 -0 -2 -3 -2 -9 -5 -2 -5 -2 -4 0 5 3 -4
1 -1 -2 3 3 -1 2 1 2 2 -1 -0 2 2 3 3 7 -1 -2 -4 1 6
5 2 1 -0 -0 1 -1 -1 -1 -1 0 1 -1 2 -0 -0 3 -3 3 1 -4 -6
1 5 4 5 8 3 1 -3 -1 -0 1 3 2 4 1 2 0 -3 -3 6 -6 -2
-2 1 4 2 2 5 4 4 5 3 2 3 5 7 6 5 2 -2 -1 1 5 5
-6 -4 -1 -1 2 4 5 2 3 3 1 1 0 5 4 5 8 10 6 -8 -1 5
1 -0 1 1 0 -2 -2 -2 -2 -2 2 4 2 5 3 7 -3 2 13 4 -13 -10
-11 -4 -4 -4 -2 -3 -1 -1 0 0 -1 0 -1 9 4 9 1 -16 10 8 5 1
1 -3 -4 -2 -3 -3 -3 -1 0 1 -1 -4 -0 3 3 6 -0 0 -10 -13 3 2
-1 0 2 1 -0 1 0 1 2 1 6 -6 3 7 3 8 -5 7 -8 -1 2 7
-4 -4 -3 -2 -2 -1 -3 -1 -3 -0 -0 2 -0 9 7 2 4 -6 1 -5 7 1
-3 -4 -4 -5 -5 -5 -4 -6 -4 -3 0 5 -4 16 12 5 -2 -8 -9 1 -0 9
-3 -7 -5 -6 -4 -6 -4 -3 -2 -3 2 -0 1 -1 16 -3 -6 4 -6 -8 -6 -2
Height
3079 3076 3074 3072 3070 3070 3069 3068 3066 3064 3061 3058 3056 3054 3050 3047 3044 3041 3037 3035 3033 3031
3073 3071 3070 3068 3067 3066 3064 3062 3059 3056 3054 3051 3047 3045 3042 3039 3037 3034 3031 3028 3024 3021
3068 3065 3064 3062 3060 3058 3057 3055 3052 3049 3045 3042 3039 3036 3031 3029 3027 3024 3022 3020 3017 3013
3062 3059 3056 3055 3052 3050 3048 3045 3043 3040 3037 3033 3030 3027 3022 3019 3017 3014 3012 3010 3008 3005
3054 3051 3048 3046 3042 3039 3036 3034 3031 3029 3026 3023 3020 3016 3012 3009 3007 3004 3001 3000 2997 2996
3042 3040 3037 3034 3031 3029 3025 3023 3020 3016 3013 3011 3008 3004 3001 2998 2996 2992 2989 2989 2986 2986
3029 3028 3025 3021 3018 3015 3012 3009 3007 3004 3001 2997 2994 2990 2989 2985 2982 2980 2977 2976 2975 2974
3018 3015 3011 3008 3005 3002 3000 2997 2993 2990 2988 2984 2980 2978 2975 2971 2969 2966 2964 2961 2960 2961
3009 3004 3000 2996 2992 2989 2986 2983 2980 2977 2973 2970 2968 2967 2963 2957 2954 2952 2949 2948 2948 2948
2994 2990 2987 2983 2979 2975 2971 2968 2965 2963 2959 2955 2954 2953 2949 2945 2940 2937 2936 2935 2934 2934
2983 2978 2973 2969 2965 2961 2957 2953 2949 2946 2945 2941 2939 2939 2934 2930 2927 2924 2924 2921 2921 2920
2974 2969 2964 2959 2955 2950 2945 2941 2937 2934 2931 2928 2926 2926 2922 2916 2912 2911 2912 2910 2909 2908
2963 2958 2954 2949 2944 2940 2935 2930 2926 2922 2919 2916 2911 2911 2908 2903 2898 2897 2898 2898 2897 2896
2951 2946 2942 2938 2933 2929 2924 2919 2915 2911 2906 2904 2901 2897 2893 2889 2885 2885 2883 2882 2882 2883